Location: Seattle
(47.6060°N, 122.3310°W)
Time: 16:10:28
(UTC-07:00)

ISS - Visible Passes

Search period start: 04 September 2015 00:00
Search period end: 14 September 2015 00:00
Orbit: 400 x 402 km, 51.6° (Epoch: 04 September)

Date Brightness Start Highest point End Pass type
(mag) Time Alt. Az. Time Alt. Az. Time Alt. Az.
09 Sep -0.4 05:20:50 10° SSE 05:21:33 11° SE 05:22:22 10° ESE visible
10 Sep -2.0 06:01:08 10° SSW 06:04:08 35° SE 06:07:10 10° ENE visible
11 Sep -1.3 05:09:11 14° S 05:10:54 21° SE 05:13:27 10° E visible
12 Sep -0.5 04:18:08 12° SE 04:18:08 12° SE 04:19:08 10° ESE visible
12 Sep -3.1 05:50:44 12° SW 05:53:38 67° SSE 05:56:53 10° ENE visible
13 Sep -2.4 04:59:36 34° S 05:00:18 39° SSE 05:03:23 10° ENE visible
